When you browse on this site, cookies collect data to enhance your experience and personalize the content and advertising you see.
Visit our Privacy Policy to learn more. By continuing to use the site, you agree to this use of cookies and data.

Météo par heure à Buraydah

Ce jour, 14 Août, Vendredi

Heure Température Précipitation Vent Pression Humidité
00:00 +33°C° 0 mm 3 m/s 699 mmHg 16%
01:00 +31°C° 0 mm 3 m/s 699 mmHg 16%
02:00 +31°C° 0 mm 3 m/s 699 mmHg 16%
03:00 +31°C° 0 mm 3 m/s 699 mmHg 19%
04:00 +30°C° 0 mm 3 m/s 699 mmHg 20%
05:00 +30°C° 0 mm 3 m/s 699 mmHg 20%
06:00 +29°C° 0 mm 3 m/s 700 mmHg 21%
07:00 +32°C° 0 mm 2 m/s 700 mmHg 19%
08:00 +35°C° 0 mm 2 m/s 700 mmHg 16%
09:00 +38°C° 0 mm 2 m/s 701 mmHg 14%
10:00 +39°C° 0 mm 3 m/s 701 mmHg 13%
11:00 +42°C° 0 mm 3 m/s 701 mmHg 12%
12:00 +44°C° 0 mm 3 m/s 701 mmHg 11%
13:00 +44°C° 0 mm 4 m/s 700 mmHg 10%
14:00 +46°C° 0 mm 5 m/s 699 mmHg 10%
15:00 +47°C° 0 mm 5 m/s 698 mmHg 10%
16:00 +46°C° 0 mm 5 m/s 698 mmHg 10%
17:00 +44°C° 0 mm 4 m/s 698 mmHg 10%
18:00 +44°C° 0 mm 4 m/s 698 mmHg 11%
19:00 +42°C° 0 mm 4 m/s 698 mmHg 12%
20:00 +40°C° 0 mm 4 m/s 698 mmHg 13%
21:00 +37°C° 0 mm 4 m/s 698 mmHg 13%
22:00 +36°C° 0 mm 4 m/s 698 mmHg 13%
23:00 +35°C° 0 mm 3 m/s 698 mmHg 13%

Demain, 15 Août, Samedi

Heure Température Précipitation Vent Pression Humidité
00:00 +34°C° 0 mm 3 m/s 698 mmHg 12%
01:00 +33°C° 0 mm 3 m/s 698 mmHg 13%
02:00 +31°C° 0 mm 2 m/s 697 mmHg 14%
03:00 +30°C° 0 mm 2 m/s 697 mmHg 14%
04:00 +30°C° 0 mm 2 m/s 697 mmHg 15%
05:00 +30°C° 0 mm 2 m/s 698 mmHg 15%
06:00 +29°C° 0 mm 2 m/s 698 mmHg 15%
07:00 +32°C° 0 mm 2 m/s 699 mmHg 13%
08:00 +36°C° 0 mm 2 m/s 699 mmHg 11%
09:00 +39°C° 0 mm 1 m/s 699 mmHg 9%
10:00 +40°C° 0 mm 1 m/s 699 mmHg 9%
11:00 +42°C° 0 mm 1 m/s 700 mmHg 8%
12:00 +43°C° 0 mm 1 m/s 700 mmHg 8%
13:00 +44°C° 0 mm 1 m/s 699 mmHg 8%
14:00 +46°C° 0 mm 2 m/s 699 mmHg 8%
15:00 +46°C° 0 mm 2 m/s 698 mmHg 8%
16:00 +46°C° 0 mm 2 m/s 698 mmHg 8%
17:00 +45°C° 0 mm 3 m/s 698 mmHg 9%
18:00 +44°C° 0 mm 3 m/s 698 mmHg 9%
19:00 +42°C° 0 mm 3 m/s 698 mmHg 10%
20:00 +40°C° 0 mm 4 m/s 698 mmHg 11%
21:00 +37°C° 0 mm 4 m/s 698 mmHg 13%
22:00 +36°C° 0 mm 4 m/s 698 mmHg 12%
23:00 +35°C° 0 mm 4 m/s 698 mmHg 12%

Après-demain, 16 Août, Dimanche

Heure Température Précipitation Vent Pression Humidité
00:00 +34°C° 0 mm 4 m/s 698 mmHg 12%
01:00 +34°C° 0 mm 3 m/s 698 mmHg 12%
02:00 +33°C° 0 mm 3 m/s 698 mmHg 13%
03:00 +31°C° 0 mm 3 m/s 697 mmHg 13%
04:00 +30°C° 0 mm 2 m/s 698 mmHg 14%
05:00 +29°C° 0 mm 1 m/s 698 mmHg 15%
06:00 +26°C° 0 mm 0 m/s 698 mmHg 16%
07:00 +31°C° 0 mm 1 m/s 699 mmHg 14%
08:00 +36°C° 0 mm 2 m/s 700 mmHg 11%
09:00 +39°C° 0 mm 2 m/s 700 mmHg 9%
10:00 +41°C° 0 mm 2 m/s 700 mmHg 8%
11:00 +44°C° 0 mm 3 m/s 700 mmHg 7%
12:00 +45°C° 0 mm 3 m/s 701 mmHg 7%
13:00 +46°C° 0 mm 2 m/s 700 mmHg 7%
14:00 +45°C° 0 mm 1 m/s 700 mmHg 7%
15:00 +43°C° 0 mm 0 m/s 699 mmHg 7%
16:00 +46°C° 0 mm 2 m/s 699 mmHg 7%
17:00 +45°C° 0 mm 3 m/s 699 mmHg 7%
18:00 +45°C° 0 mm 4 m/s 699 mmHg 8%
19:00 +43°C° 0 mm 4 m/s 699 mmHg 9%
20:00 +41°C° 0 mm 4 m/s 699 mmHg 10%
21:00 +39°C° 0 mm 5 m/s 699 mmHg 11%
22:00 +38°C° 0 mm 4 m/s 699 mmHg 12%
23:00 +37°C° 0 mm 4 m/s 699 mmHg 12%

17 Août, Lundi

Heure Température Précipitation Vent Pression Humidité
00:00 +36°C° 0 mm 4 m/s 699 mmHg 13%
01:00 +35°C° 0 mm 3 m/s 699 mmHg 14%
02:00 +34°C° 0 mm 3 m/s 699 mmHg 14%
03:00 +31°C° 0 mm 2 m/s 699 mmHg 15%
04:00 +31°C° 0 mm 2 m/s 699 mmHg 15%
05:00 +31°C° 0 mm 2 m/s 699 mmHg 15%
06:00 +30°C° 0 mm 2 m/s 699 mmHg 15%
07:00 +34°C° 0 mm 2 m/s 700 mmHg 13%
08:00 +37°C° 0 mm 3 m/s 701 mmHg 11%
09:00 +40°C° 0 mm 3 m/s 701 mmHg 9%
10:00 +42°C° 0 mm 2 m/s 701 mmHg 8%
11:00 +43°C° 0 mm 2 m/s 701 mmHg 8%
12:00 +46°C° 0 mm 2 m/s 701 mmHg 7%
13:00 +46°C° 0 mm 2 m/s 700 mmHg 7%
14:00 +47°C° 0 mm 2 m/s 700 mmHg 7%
15:00 +46°C° 0 mm 1 m/s 699 mmHg 7%
16:00 +47°C° 0 mm 2 m/s 699 mmHg 7%
17:00 +46°C° 0 mm 3 m/s 699 mmHg 8%
18:00 +45°C° 0 mm 4 m/s 699 mmHg 8%
19:00 +43°C° 0 mm 4 m/s 699 mmHg 9%
20:00 +42°C° 0 mm 4 m/s 699 mmHg 10%
21:00 +40°C° 0 mm 4 m/s 699 mmHg 10%
22:00 +38°C° 0 mm 4 m/s 699 mmHg 11%
23:00 +37°C° 0 mm 5 m/s 699 mmHg 12%

18 Août, Mardi

Heure Température Précipitation Vent Pression Humidité
00:00 +36°C° 0 mm 5 m/s 699 mmHg 12%
01:00 +34°C° 0 mm 4 m/s 699 mmHg 14%
02:00 +33°C° 0 mm 3 m/s 698 mmHg 15%
03:00 +30°C° 0 mm 1 m/s 698 mmHg 16%
04:00 +30°C° 0 mm 1 m/s 698 mmHg 17%
05:00 +29°C° 0 mm 1 m/s 699 mmHg 17%
06:00 +26°C° 0 mm 0 m/s 699 mmHg 17%
07:00 +32°C° 0 mm 1 m/s 699 mmHg 14%
08:00 +36°C° 0 mm 2 m/s 700 mmHg 12%
09:00 +39°C° 0 mm 2 m/s 700 mmHg 9%
10:00 +41°C° 0 mm 2 m/s 700 mmHg 8%
11:00 +42°C° 0 mm 2 m/s 700 mmHg 8%
12:00 +45°C° 0 mm 2 m/s 700 mmHg 7%
13:00 +46°C° 0 mm 3 m/s 700 mmHg 7%
14:00 +48°C° 0 mm 4 m/s 699 mmHg 7%
15:00 +49°C° 0 mm 4 m/s 699 mmHg 7%
16:00 +48°C° 0 mm 4 m/s 699 mmHg 7%
17:00 +47°C° 0 mm 4 m/s 698 mmHg 7%
18:00 +45°C° 0 mm 4 m/s 698 mmHg 7%
19:00 +43°C° 0 mm 4 m/s 698 mmHg 8%
20:00 +41°C° 0 mm 4 m/s 699 mmHg 9%
21:00 +39°C° 0 mm 5 m/s 699 mmHg 10%
22:00 +36°C° 0 mm 4 m/s 699 mmHg 10%
23:00 +35°C° 0 mm 4 m/s 698 mmHg 11%

19 Août, Mercredi

Heure Température Précipitation Vent Pression Humidité
00:00 +34°C° 0 mm 3 m/s 698 mmHg 11%
01:00 +33°C° 0 mm 3 m/s 698 mmHg 11%
02:00 +31°C° 0 mm 2 m/s 698 mmHg 12%
03:00 +30°C° 0 mm 2 m/s 697 mmHg 12%
04:00 +30°C° 0 mm 2 m/s 698 mmHg 12%
05:00 +30°C° 0 mm 2 m/s 698 mmHg 13%
06:00 +30°C° 0 mm 3 m/s 698 mmHg 13%
07:00 +32°C° 0 mm 2 m/s 699 mmHg 11%
08:00 +36°C° 0 mm 2 m/s 700 mmHg 10%
09:00 +39°C° 0 mm 2 m/s 701 mmHg 9%
10:00 +41°C° 0 mm 2 m/s 700 mmHg 8%
11:00 +42°C° 0 mm 2 m/s 700 mmHg 8%
12:00 +45°C° 0 mm 3 m/s 700 mmHg 7%
13:00 +47°C° 0 mm 4 m/s 700 mmHg 7%
14:00 +48°C° 0 mm 4 m/s 699 mmHg 7%
15:00 +48°C° 0 mm 5 m/s 699 mmHg 7%
16:00 +47°C° 0 mm 5 m/s 699 mmHg 7%
17:00 +46°C° 0 mm 5 m/s 698 mmHg 7%
18:00 +44°C° 0 mm 4 m/s 698 mmHg 7%
19:00 +42°C° 0 mm 4 m/s 698 mmHg 8%
20:00 +40°C° 0 mm 4 m/s 698 mmHg 9%
21:00 +37°C° 0 mm 4 m/s 698 mmHg 10%
22:00 +36°C° 0 mm 3 m/s 698 mmHg 11%
23:00 +35°C° 0 mm 3 m/s 698 mmHg 11%
Voir plus